Snowfall_Accumulation
0.0 0.0 0.0 0.0 0.0 0.0 0.3 0.8 5.0 5.2 3.1 0.0 0.3 0.0 0.0 0.0 0.0 0.0 0.0 0.0 0.0 0.0 0.0 0.0 0.0 0.0 0.0 0.0 0.0 0.0 0.0 0.0 0.0 0.0 0.0 0.0 0.0 0.0
0.0 0.0 0.0 0.0 0.0 0.1 0.2 0.4 0.8 2.6 2.4 0.0 0.0 0.0 0.0 0.0 0.0 0.0 0.0 0.0 0.0 0.2 0.0 0.0 0.0 0.0 0.0 0.0 0.0 0.0 0.0 0.0 0.0 0.0 0.0 0.0 0.0 0.0
0.0 0.0 0.0 0.0 0.0 0.1 0.2 0.3 0.4 0.8 2.6 1.2 0.0 0.0 0.0 0.0 0.0 0.0 0.0 0.1 0.1 0.7 0.4 0.2 0.0 0.0 0.0 0.0 0.0 0.0 0.0 0.0 0.0 0.0 0.0 0.0 0.0 0.0
0.0 0.1 0.1 0.0 0.0 0.0 0.2 0.2 0.2 0.3 1.3 3.1 3.6 3.9 2.8 0.2 0.0 0.0 0.1 0.3 0.6 0.6 0.4 0.3 0.5 0.0 0.0 0.0 0.0 0.0 0.0 0.0 0.0 0.0 0.0 0.0 0.0 0.0
0.2 0.3 0.2 0.0 0.1 0.0 0.1 0.3 0.3 0.3 0.8 1.0 3.7 3.2 2.4 1.0 0.3 0.0 0.2 0.4 0.6 0.6 0.4 0.7 0.3 0.6 0.3 0.2 0.0 0.3 0.0 0.0 0.0 0.0 0.1 0.0 0.0 0.0
0.2 0.3 0.4 0.5 0.8 0.5 0.2 0.3 0.3 0.2 2.7 3.2 6.5 6.4 4.2 2.6 0.9 0.8 0.3 0.6 2.3 1.5 1.8 0.9 0.9 0.5 0.5 0.1 0.3 0.0 0.0 0.2 0.0 0.0 0.3 0.2 0.0 0.0
0.7 0.5 0.8 0.9 0.7 0.7 0.6 0.5 0.3 0.2 4.9 6.7 7.1 7.0 7.7 4.7 3.7 0.7 1.7 1.1 0.2 0.4 1.0 1.5 1.4 1.1 1.1 0.7 0.3 0.4 0.3 0.0 0.2 0.4 0.0 0.0 0.4 0.0
2.0 1.6 1.3 0.6 0.7 0.3 0.5 0.5 0.5 1.2 6.5 5.1 5.0 4.5 3.2 1.9 1.4 2.9 3.3 4.8 5.8 0.1 1.5 1.9 0.6 1.0 0.7 0.6 0.3 0.3 0.5 0.4 0.7 0.0 0.0 0.0 0.0 0.3
2.8 2.3 2.1 2.9 1.9 0.9 0.9 0.8 0.6 0.5 1.0 2.2 4.9 3.6 3.3 3.6 3.2 5.3 3.1 2.7 4.9 0.3 0.5 2.6 0.3 1.6 1.3 0.7 1.1 0.4 0.5 0.6 0.0 0.6 0.7 0.0 0.7 0.0
3.1 3.0 3.1 3.3 2.5 2.6 3.3 3.3 1.9 1.4 2.1 2.9 2.0 2.3 3.2 2.3 1.4 1.3 1.9 5.7 5.3 0.5 0.8 7.9 6.0 5.4 2.9 1.7 1.2 2.2 0.7 0.1 0.1 0.3 0.2 0.3 1.1 1.3
3.9 3.6 3.1 3.4 3.4 4.6 3.9 4.6 4.5 4.8 3.3 2.7 2.7 2.1 2.8 0.9 0.3 4.5 8.3 6.4 7.8 7.0 5.0 5.4 6.1 4.7 4.7 4.9 2.0 1.9 1.0 0.4 0.4 0.2 0.2 0.1 0.2 0.2
1.5 1.7 3.2 4.0 3.5 2.3 5.4 5.7 7.0 4.5 5.8 6.8 6.0 2.1 1.2 3.0 1.7 3.9 7.1 11.3 10.6 7.5 5.9 9.1 6.3 7.2 9.0 7.3 5.0 2.5 1.4 1.3 0.6 0.4 0.2 0.0 0.3 0.2
0.8 0.8 1.0 2.7 2.0 1.7 2.0 3.2 4.3 4.6 6.2 8.2 8.7 7.8 11.2 5.3 4.9 6.4 7.1 10.7 10.8 15.3 10.6 14.2 8.0 6.9 10.4 5.0 3.3 2.0 1.1 1.1 0.4 0.5 0.2 1.3 0.5 1.2
1.8 2.0 2.5 0.9 1.3 0.5 1.0 3.5 4.6 5.5 7.2 11.2 11.8 12.0 13.8 12.5 12.0 11.2 10.2 9.9 10.4 9.9 9.9 12.7 15.3 8.9 9.3 8.5 4.4 6.1 6.9 1.2 1.1 4.0 1.3 1.1 2.6 3.2
3.1 3.6 2.3 4.6 3.5 5.9 6.7 12.0 10.8 15.3 18.9 18.4 16.3 14.3 10.8 7.7 5.0 4.9 4.7 3.5 5.1 3.9 5.1 8.4 6.6 6.5 8.8 9.2 8.1 6.2 10.1 6.6 6.3 5.9 4.8 7.9 1.1 2.0
10.0 16.7 16.0 22.0 20.5 21.1 20.8 19.5 18.1 17.2 16.2 14.0 11.1 8.4 6.5 5.4 5.4 4.4 6.6 4.9 5.1 4.3 3.2 2.2 4.2 6.0 6.4 5.2 6.4 4.9 4.6 7.7 7.7 8.8 8.1 8.3 8.9 7.9
15.1 21.9 20.7 17.7 15.1 13.0 10.8 8.6 7.3 6.3 6.8 5.7 6.3 6.0 3.8 4.5 4.4 2.7 3.3 3.6 4.7 2.7 4.0 2.6 2.0 4.4 4.7 7.2 7.1 5.1 5.2 5.9 7.5 4.6 6.3 6.0 4.1 5.5
14.8 12.2 10.6 9.4 7.5 5.9 6.7 3.6 3.3 4.0 2.7 5.6 5.6 4.3 4.2 4.3 5.6 4.4 3.8 4.2 3.9 3.6 3.5 3.4 6.6 6.4 6.2 4.7 3.4 5.3 5.8 9.2 5.3 3.7 3.0 4.7 3.3 3.1
20.7 15.0 14.6 11.6 11.1 10.0 9.4 6.6 6.7 5.5 5.6 7.4 7.0 7.7 7.6 6.4 7.6 6.0 5.1 3.7 3.1 4.5 4.4 4.4 6.2 7.7 9.2 8.2 4.9 2.4 7.1 6.3 4.1 4.2 4.0 3.0 5.5 4.6
18.5 17.8 18.4 18.0 17.5 17.0 14.5 13.7 12.6 10.2 9.9 9.4 8.5 8.2 8.5 9.0 8.7 7.8 9.8 7.4 6.4 8.4 4.9 6.6 4.2 7.2 9.3 8.4 10.2 5.0 4.4 5.1 7.5 7.1 7.6 4.8 7.3 8.5
13.8 13.2 14.0 14.0 14.2 14.1 14.4 14.8 14.8 15.2 14.1 13.7 13.6 14.4 14.3 13.0 12.3 11.6 11.0 10.5 8.6 8.5 8.4 8.6 9.5 9.6 9.9 10.6 13.6 12.7 12.2 10.8 9.4 10.2 10.0 11.0 10.0 11.2
8.6 9.2 9.4 8.7 8.7 9.5 10.6 11.0 11.1 11.2 11.6 12.2 12.4 12.0 13.4 13.4 13.0 12.2 12.1 11.8 9.8 9.2 9.2 9.3 8.7 9.2 9.5 9.9 11.5 10.6 10.1 10.8 9.0 10.1 9.8 8.8 11.0 12.1
6.2 6.3 6.4 6.1 5.5 6.0 6.1 6.8 7.1 7.5 7.5 8.3 9.1 9.6 10.1 11.3 10.1 10.9 10.5 9.0 7.5 7.0 7.8 8.1 7.8 8.2 8.7 8.2 8.5 11.0 10.1 10.1 10.3 10.7 12.0 11.1 7.9 6.2